Location: Leeds
(37.2390°N, 113.3580°W)
Time: 06:38:47
(UTC-06:00)

SL-08 RB Rocket - Visible Passes

Search period start: 31 March 2015 00:00
Search period end: 10 April 2015 00:00
Orbit: 649 x 687 km, 98.1° (Epoch: 30 March)

Date Brightness Start Highest point End Pass type
(mag) Time Alt. Az. Time Alt. Az. Time Alt. Az.
31 Mar 6.7 23:33:52 12° NNW 23:33:52 12° NNW 23:34:15 10° NNW visible
01 Apr 6.1 22:28:06 14° NNE 22:28:06 14° NNE 22:28:48 10° NNE visible
02 Apr 6.1 23:00:27 16° N 23:00:27 16° N 23:01:26 10° N visible
03 Apr 6.5 23:32:50 14° NNW 23:32:50 14° NNW 23:33:31 10° NNW visible
04 Apr 5.9 22:27:02 15° NNE 22:27:02 15° NNE 22:28:03 10° NNE visible
05 Apr 6.0 22:59:24 19° N 22:59:24 19° N 23:00:41 10° N visible
06 Apr 6.3 23:31:46 17° NNW 23:31:46 17° NNW 23:32:47 10° NNW visible
07 Apr 5.8 22:25:58 17° NNE 22:25:58 17° NNE 22:27:18 10° NNE visible
08 Apr 6.8 00:04:07 11° NW 00:04:07 11° NW 00:04:19 10° NW visible
08 Apr 5.8 22:58:20 21° N 22:58:20 21° N 22:59:56 10° N visible
09 Apr 6.1 21:52:32 10° NE 21:52:32 10° NE 21:52:43 10° NE visible
09 Apr 6.1 23:30:41 19° NNW 23:30:41 19° NNW 23:32:02 10° NNW visible
